Jackpot

Texas Poker Multi Jackpot System

Kini Telah hadir Jackpot SUPER ROYAL FLUSH

Kini Telah hadir Jackpot 2000 (khusus table VIP keatas).

Ikutilah global jackpot yang tersedia di system kami, dengan system jackpot terbaru dan pertama di indonesia, anda dapat membeli jackpot dengan harga 100 rupiah saja dan menangkan hadiahnya hingga puluhan juta rupiah.

Jackpot bukanlah suatu keharusan untuk dibeli, namun kami memberikan suatu fitur tambahan untuk member tercinta dari www.ayo99.net.

Terdapat tiga pilihan harga jackpot yang bisa anda beli yaitu :100,500,1000 dan 2000(khusus table VIP Keatas) rupiah.

Hadiah dari Multi jackpot system www.ayo99.net

  1. full house x 10 harga jackpot yang anda beli.
      (contoh:anda membeli 1000 maka:1000 X10 = 10.000)
  2. four of kind x 250 harga jackpot yang anda beli
      (contoh:anda membeli 1000 maka:1000 X250 = 250.000)
  3. Straight flush x 1200
      (contoh:anda membeli 1000 maka:1000 X1200 = 1.200.000)
  4. Royal flush x 10000 harga jackpot yang anda beli
      (contoh:anda membeli 1000 maka:1000 X10000 = 10.000.000)
  5. SUPER ROYAL FLUSH x 30000 harga jackpot yang anda beli
      (contoh:anda membeli 1000 maka:1000 X30000 = 30.000.000)

Kondisi kartu

  1. full house adalah kondisi kartu dimana kartu anda dan kartu tengah dengan total 7 kartu bisa mendapatkan nilai 5 kartu dengan kombinasi 1 tris(three of kind) dan 1 pair, contoh 3 kartu 10 dan 2 kartu 5
  2. Four of kind adalah kondisi kartu dimana kartu anda dan kartu tengah dengan total 7 kartu bisa mendapatkan nilai 5 kartu dengan kombinasi 4 kartu yang sama jumlah dan 1 kartu apapun juga contoh anda mendapatkan 4 buah kartu angka 3 dan 1 kartu apapun.
  3. Staright flush adalah kondisi kartu dimana kartu anda dan kartu tengah dengan total 7 kartu bisa mendapatkan nilai 5 kartu dengan kombinasi seri / staright dengan kembang yang sama contoh : urutan kartu dari angka 5, 6, 7, 8 , 9 10 dengan kembang yg sama misalnya as hati
  4. Royal flush adalah kondisi kartu dimana kartu anda dan kartu tengah dengan total 7 kartu bisa mendapatkan nilai 5 kartu dengan kombinasi seri / staright dengan kembang yang sama tetapi kartu tersebut haruslah dimulai dari 10. contoh 10, Queen, Jack, King dan aces dengan kembang yang sama
  5. Super Royal flush adalah kondisi kartu dimana Kedua kartu anda digabung dengan 3 kartu pertama meja haruslah royal flush. contoh kartu anda 10,Queen kembang sama dan 3 kartu pertama meja adalah Jack, King dan aces dengan kembang yang sama

Demikian adalah penjelasan dari Multi Jackpot www.ayo99.net terima kasih dan selamat bermain salam hoki dari kami

Texas Poker Jackpot Winner

TOP SUPER ROYAL FLUSH
No.TanggalNamaPriceWin
118/11 14:42INDRY04Super Royal flush6,000,000
218/11 07:16R_BOSSuper Royal flush3,000,000
318/11 01:56CLICKTOPSuper Royal flush60,000,000
417/11 19:22A8B9403ESuper Royal flush15,000,000
517/11 17:37D3W4M0NY3TSuper Royal flush15,000,000
TOP ROYAL FLUSH
No.TanggalNamaPriceWin
118/11 15:14D94833B1Royal flush5,000,000
218/11 15:13PKCLICK062Royal flush20,000,000
318/11 14:59MARONN1Royal flush1,000,000
418/11 14:56FIR76Royal flush2,000,000
518/11 14:53PAUH001Royal flush5,000,000
TOP STRAIGHT FLUSH
No.TanggalNamaPriceWin
118/11 15:13NDOYQUEStraight Flush1,200,000
218/11 15:10ERWINSEPULStraight Flush1,200,000
318/11 15:04GENGSTER13Straight Flush240,000
418/11 15:04NYAWA2007Straight Flush1,200,000
518/11 15:04BUJUR_PI9Straight Flush240,000
LATEST JACKPOT
No.TanggalNamaPriceWin
118/11 15:18B98657B7Full House2,000
218/11 15:18KULIT09Full House10,000
318/11 15:18CIPAPUY99Full House5,000
418/11 15:18BANGKIT46Full House1,000
518/11 15:18ELS3PRY1WJFull House5,000
618/11 15:18M0D_NIKAH9Full House1,000
718/11 15:18BD1FBE56Full House1,000
818/11 15:18PROVEN88Full House20,000
918/11 15:18NEGOSAY100Full House2,000
1018/11 15:18WEARFull House2,000
1118/11 15:18LAFALOS120Full House10,000
1218/11 15:18MAURIT99Full House10,000
1318/11 15:18UDHA45Full House1,000
1418/11 15:18LUPIS13Full House2,000
1518/11 15:18EZIL10Full House1,000
1618/11 15:18KALAHWAKFull House5,000
1718/11 15:18GIEPOWFull House2,000
1818/11 15:18NDOUG444Full House2,000
1918/11 15:18TOMINGSEXXFull House5,000
2018/11 15:18FHNZH57AN2Full House2,000
2118/11 15:18MEYDITA3Full House2,000
2218/11 15:18BKTUFull House5,000
2318/11 15:18NULLANGFull House5,000
2418/11 15:18T0011932Full House10,000
2518/11 15:18KENTING88Full House10,000
2618/11 15:18BEZO7777Full House2,000
2718/11 15:18B_0_Y_0Full House1,000
2818/11 15:18EKJLQIEJKQFull House20,000
2918/11 15:18SEWODFull House10,000
3018/11 15:18FREDDY012Full House20,000
3118/11 15:18L8AUBAOUFull House1,000
3218/11 15:18COBRAKEYFull House2,000
3318/11 15:18RASTAGEJULFull House1,000
3418/11 15:18SSS3SSSFull House1,000
3518/11 15:18LUISMILLAFull House2,000
3618/11 15:18YLA6666Full House2,000
3718/11 15:18HSX3C7RT6QFull House2,000
3818/11 15:18LANDUNGGFull House1,000
3918/11 15:18KOMET191Full House2,000
4018/11 15:18BUCATWAEFull House2,000
4118/11 15:18GERUSTERUSFull House2,000
4218/11 15:18TIWUL87Full House2,000
4318/11 15:18J4MBU11Full House2,000
4418/11 15:18UDINBUTOFull House5,000
4518/11 15:18SSUNOFull House5,000
4618/11 15:18DEMPIS20Full House5,000
4718/11 15:18MASBRO64Full House2,000
4818/11 15:17BADAI231Full House2,000
4918/11 15:17LERBY777Four Of A Kind125,000
5018/11 15:17ASEBO111Full House2,000

Domino Multi Jackpot System

Ikutilah global jackpot yang tersedia di system kami, dengan system jackpot terbaru dan pertama di indonesia, anda dapat membeli jackpot dengan harga 100 rupiah saja dan menangkan hadiahnya hingga puluhan juta rupiah.

Jackpot bukanlah suatu keharusan untuk dibeli, namun kami memberikan suatu fitur tambahan untuk member tercinta dari www.ayo99.net.

Terdapat tiga pilihan harga jackpot yang bisa anda beli yaitu :100,500 dan 1000 rupiah.

Hadiah dari Multi jackpot system www.ayo99.net

  1. Murni Kecil x 50 harga jackpot yang anda beli.
      (contoh:anda membeli 1000 maka:1000 X 50 = 50.000)
  2. Murni Besar x 50 harga jackpot yang anda beli
      (contoh:anda membeli 1000 maka:1000 X 50 = 50.000)
  3. BALAK x 100 harga jackpot yang anda beli
      (contoh:anda membeli 1000 maka:1000 X 100 = 100.000)
  4. ENAM DEWA x 6666 harga jackpot yang anda beli
      (contoh:anda membeli 1000 maka:1000 X 6666 = 6.666.000)

Demikian adalah penjelasan dari Multi Jackpot www.ayo99.net terima kasih dan selamat bermain salam hoki dari kami

Domino Jackpot Winner

TOP ENAM DEWA
No.TanggalNamaPriceWin
118/11 15:03THEKING72murni enam3,333,000
218/11 12:38SAFA2102murni enam6,666,000
318/11 08:16SONNY2929murni enam3,333,000
418/11 07:15HAYEYmurni enam3,333,000
518/11 04:11ROVI07murni enam3,333,000
TOP BALAK
No.TanggalNamaPriceWin
118/11 15:14KAKA201balak50,000
218/11 15:07FATMA1balak100,000
318/11 15:06ADMIN_Qbalak100,000
418/11 15:02UL05E99balak100,000
518/11 15:00DESIGA12balak10,000
LATEST JACKPOT
No.TanggalNamaPriceWin
118/11 15:17SONNY2929murni besar50,000
218/11 15:16PIAN86X9murni kecil50,000
318/11 15:16ROTY02murni besar25,000
418/11 15:16IDASUSANTImurni besar25,000
518/11 15:15IDOLABANARmurni besar50,000
618/11 15:14B444YUUUmurni besar50,000
718/11 15:14KAKA201balak50,000
818/11 15:13ONDIXmurni besar50,000
918/11 15:13LIANASARImurni kecil25,000
1018/11 15:12NAKHOKI99murni kecil25,000
1118/11 15:11JABAR178murni besar5,000
1218/11 15:11AAJMADAA35murni besar25,000
1318/11 15:10LB881007lucky992,500
1418/11 15:09D3FFDDBBmurni besar50,000
1518/11 15:09BARJO123murni kecil50,000
1618/11 15:08PANJUL097murni besar5,000
1718/11 15:07FATMA1balak100,000
1818/11 15:07BALENO2002murni besar50,000
1918/11 15:06ADMIN_Qbalak100,000
2018/11 15:04NGGOWBmurni besar50,000
2118/11 15:04JAYA_JAYA_murni kecil5,000
2218/11 15:03THEKING72murni enam3,333,000
2318/11 15:03DESIGA12murni besar5,000
2418/11 15:03NAMBRU11murni kecil5,000
2518/11 15:02SPREMMVmurni kecil5,000
2618/11 15:02UL05E99balak100,000
2718/11 15:02KARETA212murni besar25,000
2818/11 15:02POTENG78murni kecil25,000
2918/11 15:02EF683F6Alucky992,500
3018/11 15:02PANANGKALmurni kecil50,000
3118/11 15:00DESIGA12balak10,000
3218/11 15:00DM82997murni besar25,000
3318/11 15:00ZILA24murni besar50,000
3418/11 14:59SNGPMENANGmurni besar50,000
3518/11 14:59KARETA212murni kecil25,000
3618/11 14:58BAH6666murni besar25,000
3718/11 14:57HOIRI81balak100,000
3818/11 14:57QFXY1NA0N6lucky9925,000
3918/11 14:56P4L4GH1murni besar50,000
4018/11 14:56NINGYOmurni besar25,000
4118/11 14:55LB884236murni besar5,000
4218/11 14:55BOSINDA5murni besar50,000
4318/11 14:55ZALIKA17murni kecil25,000
4418/11 14:55EXPRES078murni besar25,000
4518/11 14:54YAND108murni kecil25,000
4618/11 14:53F1BF7552balak10,000
4718/11 14:52MANYUN100murni besar25,000
4818/11 14:51MARLONE10balak100,000
4918/11 14:51AAKHADAK47lucky9925,000
5018/11 14:51D3FFDDBBmurni besar50,000

Ceme Multi Jackpot System

Jackpot dilihat dari gabungan kartu pemain dengan kartu bandar. Bandar harus membeli jackpot sebanyak jumlah player yang sedang duduk. Sebagai contoh bila terdapat 3 pemain duduk bermain, dan bandar memutuskan untuk membeli jackpot Rp 1.000, maka pada periode tersebut bandar akan membeli jackpot sebanyak 3xRp1.000 = Rp3.000.

Jackpot bukanlah suatu keharusan untuk dibeli, namun kami memberikan suatu fitur tambahan untuk member tercinta dari www.ayo99.net.

Terdapat tiga pilihan harga jackpot yang bisa anda beli yaitu :100,500 dan 1000 rupiah.

Hadiah dari Multi jackpot system www.ayo99.net

  1. Murni Kecil x 50 harga jackpot yang anda beli.
      (contoh:anda membeli 1000 maka:1000 X 50 = 50.000)
  2. Murni Besar x 50 harga jackpot yang anda beli
      (contoh:anda membeli 1000 maka:1000 X 50 = 50.000)
  3. BALAK x 200 harga jackpot yang anda beli
      (contoh:anda membeli 1000 maka:1000 X 200 = 200.000)
  4. ENAM DEWA x 6666 harga jackpot yang anda beli
      (contoh:anda membeli 1000 maka:1000 X 6666 = 6.666.000)

Demikian adalah penjelasan dari Multi Jackpot www.ayo99.net terima kasih dan selamat bermain salam hoki dari kami

Ceme Jackpot Winner

TOP ENAM DEWA
No.TanggalNamaPriceWin
118/11 15:05LILIPALY69murni enam3,333,000
218/11 14:57SALIS77murni enam6,666,000
318/11 14:57TELOK41murni enam666,600
418/11 14:54NUNU95murni enam6,666,000
518/11 14:54TIHURImurni enam666,600
TOP BALAK
No.TanggalNamaPriceWin
118/11 15:18HOKIBD75balak20,000
218/11 15:17NYOT777balak200,000
318/11 15:16KOEPLE02balak200,000
418/11 15:16SAIMOK12balak20,000
518/11 15:16EWBEEbalak200,000
LATEST JACKPOT
No.TanggalNamaPriceWin
118/11 15:18BOMB99Xmurni besar5,000
218/11 15:18AADDAVKI3murni besar50,000
318/11 15:18HOKIBD75balak20,000
418/11 15:18NOTO999murni besar50,000
518/11 15:18KOLO09murni kecil50,000
618/11 15:18BAHAYImurni besar25,000
718/11 15:18DINAMAISRImurni besar50,000
818/11 15:18QQRIO97murni besar50,000
918/11 15:18JURIG_CEMEmurni besar25,000
1018/11 15:17AINUN90murni besar50,000
1118/11 15:17QEONK11murni besar50,000
1218/11 15:17B3GU36murni besar5,000
1318/11 15:17NYOT777balak200,000
1418/11 15:17B1GB05_99murni kecil25,000
1518/11 15:17ETOLOPER26murni besar50,000
1618/11 15:17ARDANA2murni besar50,000
1718/11 15:17LONCOPPmurni besar50,000
1818/11 15:17A6FF0818murni kecil50,000
1918/11 15:17OZY0212murni kecil50,000
2018/11 15:17HUDA212murni kecil50,000
2118/11 15:17ADI120murni kecil25,000
2218/11 15:16KOEPLE02balak200,000
2318/11 15:16SAIMOK12balak20,000
2418/11 15:16EWBEEbalak200,000
2518/11 15:16M48OFE29AIbalak200,000
2618/11 15:16AINUN90murni kecil50,000
2718/11 15:16BILLO77murni kecil25,000
2818/11 15:16DORMAN78murni kecil50,000
2918/11 15:16LISA503balak200,000
3018/11 15:16BAMS08balak20,000
3118/11 15:16MITOBOMbalak100,000
3218/11 15:16VIRLY10murni besar25,000
3318/11 15:16B04BD92Dmurni besar5,000
3418/11 15:16DINAMAISRIbalak200,000
3518/11 15:16NAKKUJIEbalak200,000
3618/11 15:16CRITPOMmurni kecil50,000
3718/11 15:16PONGKI18murni kecil50,000
3818/11 15:15TANABEEmurni besar50,000
3918/11 15:15FELIX1111murni besar50,000
4018/11 15:15KADITYA828murni besar25,000
4118/11 15:15GELORA21murni besar50,000
4218/11 15:15AKALOHmurni besar50,000
4318/11 15:15NYOT777balak200,000
4418/11 15:15TOKOADOmurni kecil25,000
4518/11 15:15PUTRAIKO89murni kecil50,000
4618/11 15:15SSSST77murni besar50,000
4718/11 15:15RIZKI251balak100,000
4818/11 15:14G4RINGbalak20,000
4918/11 15:14HANTUKYU09balak200,000
5018/11 15:14G4RINGmurni besar5,000